CW1656 Weather Reports


Display with metric or nautical units.
time (UTC)temp
F
wind
direction
speed
MPH
gust
MPH
rain 1hr
in
rain 24hr
in
rain mn
in
humidity
%
barometer
mb
20260509100016 42 148 1.0 2.0 0.00 0.03 0.00 80 1009.8
20260509094517 42 148 1.0 2.0 0.00 0.03 0.00 80 1009.9
20260509093014 42 148 1.0 3.0 0.00 0.03 0.00 80 1009.9
20260509091512 42 123 1.0 3.0 0.00 0.03 0.00 79 1010.0
20260509090027 42 163 2.0 3.0 0.00 0.03 0.00 79 1010.1
20260509084508 41 167 2.0 3.0 0.00 0.03 0.00 79 1010.2
20260509083016 41 167 2.0 4.0 0.00 0.03 0.00 78 1010.2
20260509081506 41 164 1.0 4.0 0.00 0.03 0.00 78 1010.3
20260509080010 41 149 1.0 3.0 0.00 0.03 0.00 77 1010.5
20260509074503 41 154 1.0 2.0 0.00 0.03 0.00 77 1010.5
20260509073004 41 153 1.0 3.0 0.00 0.03 0.00 77 1010.5
20260509071603 41 153 1.0 3.0 0.00 0.03 0.00 76 1010.7
20260509070100 41 153 2.0 5.0 0.00 0.03 0.00 74 1010.8
20260509064556 41 154 1.0 3.0 0.00 0.03 0.00 75 1010.9
20260509063109 42 166 2.0 3.0 0.00 0.03 0.00 75 1011.2
20260509061556 41 166 2.0 3.0 0.00 0.03 0.00 76 1011.4
20260509060053 40 161 1.0 2.0 0.00 0.03 0.00 82 1011.5
20260509054546 40 161 0.0 2.0 0.00 0.03 0.00 80 1011.7
20260509053047 40 161 0.0 2.0 0.00 0.03 0.00 81 1011.8
20260509051545 41 161 0.0 0.0 0.00 0.03 0.00 81 1012.0
20260509050051 41 161 0.0 0.0 0.00 0.03 0.00 78 1012.2
20260509044537 44 161 0.0 2.0 0.00 0.03 0.00 72 1012.2
20260509043042 44 160 1.0 3.0 0.00 0.03 0.00 75 1012.3
20260509041531 42 209 0.0 0.0 0.00 0.03 0.00 83 1012.5
20260509040026 42 209 0.0 0.0 0.00 0.03 0.00 80 1012.6
20260509034527 45 209 0.0 2.0 0.00 0.06 0.03 75 1012.6
20260509033035 44 209 0.0 1.0 0.00 0.06 0.03 77 1012.6
20260509031529 43 280 0.0 1.0 0.00 0.06 0.03 80 1012.6
20260509030027 43 280 0.0 1.0 0.00 0.06 0.03 79 1012.7
20260509024527 43 280 0.0 0.0 0.00 0.08 0.03 78 1012.8
20260509023025 43 280 0.0 0.0 0.00 0.08 0.03 78 1012.8
20260509021523 44 280 0.0 0.0 0.00 0.08 0.03 78 1012.6
20260509020022 45 280 0.0 0.0 0.00 0.08 0.03 76 1012.7
20260509014524 46 280 0.0 1.0 0.00 0.08 0.03 74 1012.8
20260509013022 46 280 0.0 1.0 0.00 0.08 0.03 75 1012.8
20260509011521 47 280 0.0 0.0 0.00 0.08 0.03 73 1012.7
20260509010020 47 280 0.0 0.0 0.00 0.08 0.03 70 1012.5
20260509004521 49 280 0.0 0.0 0.00 0.08 0.03 68 1012.2
20260509003019 49 280 0.0 0.0 0.00 0.08 0.03 66 1012.1
20260509001519 50 280 0.0 0.0 0.00 0.08 0.03 65 1012.0
20260509000034 52 280 0.0 0.0 0.00 0.08 0.03 61 1011.9
20260508234517 53 280 0.0 0.0 0.00 0.08 0.03 60 1011.9
20260508233016 54 280 0.0 1.0 0.00 0.08 0.03 51 1011.8
20260508231516 54 280 0.0 0.0 0.00 0.08 0.03 54 1011.7
20260508230014 54 280 0.0 2.0 0.00 0.08 0.03 49 1011.7
20260508224537 56 279 0.0 6.0 0.00 0.08 0.03 45 1011.8
20260508223014 56 282 0.0 4.0 0.00 0.08 0.03 43 1011.7
20260508221516 56 293 0.0 4.0 0.00 0.08 0.03 45 1011.7
20260508220012 56 192 0.0 5.0 0.00 0.08 0.03 42 1011.9
20260508214516 57 321 1.0 7.0 0.00 0.09 0.03 45 1011.9
20260508213010 56 283 1.0 6.0 0.00 0.09 0.03 45 1011.9
20260508211515 56 348 1.0 5.0 0.00 0.09 0.03 49 1012.0
20260508210007 56 329 1.0 8.0 0.00 0.09 0.03 52 1012.1
20260508204506 56 302 1.0 3.0 0.00 0.09 0.03 59 1012.1
20260508203004 56 311 3.0 10.0 0.00 0.09 0.03 57 1012.3
20260508201506 55 277 0.0 3.0 0.00 0.09 0.03 52 1012.4
20260508200004 57 157 1.0 8.0 0.00 0.09 0.03 47 1012.6
20260508194602 56 340 2.0 10.0 0.00 0.09 0.03 51 1012.9
20260508193105 55 284 2.0 8.0 0.00 0.09 0.03 47 1013.0
20260508191558 56 311 2.0 11.0 0.00 0.09 0.03 50 1013.1
20260508190055 55 302 4.0 9.0 0.00 0.09 0.03 49 1013.2
20260508184555 57 297 1.0 8.0 0.00 0.09 0.03 55 1013.4
20260508183109 54 98 0.0 5.0 0.00 0.09 0.03 55 1013.3
20260508181609 55 27 4.0 10.0 0.00 0.09 0.03 54 1013.4
20260508180049 55 270 2.0 9.0 0.00 0.09 0.03 56 1013.5
20260508174549 54 312 2.0 9.0 0.00 0.09 0.03 56 1013.5
20260508173046 55 277 2.0 8.0 0.00 0.09 0.03 61 1013.8
20260508171550 52 333 2.0 8.0 0.00 0.09 0.03 67 1013.9
20260508170043 52 138 1.0 8.0 0.00 0.09 0.03 65 1014.0
20260508164541 53 155 1.0 7.0 0.00 0.09 0.03 70 1014.2
20260508163045 51 265 2.0 6.0 0.00 0.09 0.03 69 1014.3
20260508161539 50 291 2.0 4.0 0.00 0.09 0.03 74 1014.6
20260508160036 49 233 1.0 5.0 0.00 0.09 0.03 73 1014.6
20260508154533 49 130 2.0 7.0 0.00 0.09 0.03 74 1014.7
20260508153031 47 276 1.0 5.0 0.00 0.09 0.03 78 1014.7
20260508151528 46 304 2.0 6.0 0.00 0.09 0.03 84 1014.7
20260508150033 45 120 1.0 3.0 0.00 0.09 0.03 84 1014.6
20260508144537 45 155 1.0 6.0 0.00 0.09 0.03 86 1014.6
20260508143033 44 156 2.0 7.0 0.00 0.09 0.03 89 1014.5
20260508141525 44 148 1.0 5.0 0.00 0.09 0.03 92 1014.5
20260508140015 43 146 2.0 8.0 0.00 0.09 0.03 94 1014.5
20260508134515 42 196 0.0 3.0 0.00 0.09 0.03 95 1014.7
20260508133015 41 311 0.0 4.0 0.01 0.09 0.03 96 1014.8
20260508131514 41 303 0.0 2.0 0.01 0.09 0.03 96 1014.7
20260508130017 41 109 0.0 3.0 0.02 0.09 0.03 97 1014.5
20260508124512 40 289 1.0 3.0 0.03 0.09 0.03 97 1014.6
20260508123012 39 271 0.0 2.0 0.02 0.08 0.02 97 1014.6
20260508121516 39 299 0.0 6.0 0.02 0.08 0.02 97 1014.6
20260508120009 41 287 2.0 6.0 0.01 0.07 0.01 97 1014.4
20260508114511 40 298 0.0 3.0 0.00 0.06 0.00 97 1014.0
20260508113125 40 122 0.0 1.0 0.00 0.06 0.00 97 1013.5
20260508111557 40 122 0.0 2.0 0.00 0.06 0.00 97 1013.3
20260508110056 40 122 1.0 2.0 0.00 0.06 0.00 97 1013.1
20260508104559 39 122 0.0 0.0 0.00 0.06 0.00 97 1013.0
20260508103104 39 122 0.0 0.0 0.00 0.06 0.00 97 1012.9
20260508101555 39 122 0.0 0.0 0.00 0.06 0.00 97 1013.0